Location: Squirrel Cove
(50.1074°N, 124.9139°W)
Time: 19:14:28
(UTC-08:00)

Envisat - Pass Details

Date: 01 December 2022
Orbit: 763 x 765 km, 98.2° (Epoch: 05 February)

Event Time Altitude Azimuth Distance (km) Brightness Sun altitude
Rises 17:15:00 0° 221° (SW) 3,222 7.6 -8.5°
Reaches altitude 10° 17:18:49 10° 251° (WSW) 2,303 7.2 -9.1°
Maximum altitude 17:20:53 12° 275° (W) 2,143 6.4 -9.4°
Drops below altitude 10° 17:22:58 10° 300° (WNW) 2,311 6.0 -9.7°
Sets 17:26:49 0° 329° (NNW) 3,245 6.4 -10.2°
